Weather reports worldwide

Advertisment
Marina Di Ginosa, Italy (16325): temperature & dewpoint: 03.08.2020 21:00:00 - 09.08.2020 21:00:00 (CEST)Marina Di Ginosa, Italy (16325): wind speed: 03.08.2020 21:00:00 - 09.08.2020 21:00:00 (CEST)Marina Di Ginosa, Italy (16325): wind direction: 03.08.2020 21:00:00 - 09.08.2020 21:00:00 (CEST)Marina Di Ginosa, Italy (16325): reduced air pressure: 03.08.2020 21:00:00 - 09.08.2020 21:00:00 (CEST)Marina Di Ginosa, Italy (16325): visibility: 03.08.2020 21:00:00 - 09.08.2020 21:00:00 (CEST)
Date & Time tt [°C] td [°C] ff [km/h] ff [kn] dd ppp [hPa] vv [km]
09.08.2020 21:00:00 - - - - - - -
09.08.2020 20:00:00 30,2 18,6 11 6 WNW 1010,5 30
09.08.2020 19:00:00 32,0 18,0 8 4 SSW - 10
09.08.2020 18:00:00 33,0 22,0 0 0 N - 10
09.08.2020 17:00:00 34,0 22,4 11 6 SSW 1010,3 30
09.08.2020 16:00:00 34,0 23,0 18 10 SSE - 10
09.08.2020 15:00:00 35,0 19,0 24 13 SE - 10
09.08.2020 14:00:00 35,0 18,6 18 10 E 1010,5 30
09.08.2020 13:00:00 34,0 18,0 24 13 ENE - 10
09.08.2020 12:00:00 33,0 18,0 18 10 E - 10
09.08.2020 11:00:00 32,0 17,5 24 13 NNE 1011,4 30
09.08.2020 10:00:00 30,0 21,0 5 3 WNW - 10
09.08.2020 09:00:00 28,0 22,0 11 6 E - 10
09.08.2020 08:00:00 26,0 21,7 9 5 SSE 1011,3 20
09.08.2020 07:00:00 - - - - - - -
09.08.2020 06:00:00 - - - - - - -
09.08.2020 05:00:00 - - - - - - -
09.08.2020 04:00:00 - - - - - - -
09.08.2020 03:00:00 - - - - - - -
09.08.2020 02:00:00 - - - - - - -
09.08.2020 01:00:00 - - - - - - -
09.08.2020 00:00:00 - - - - - - -
08.08.2020 23:00:00 - - - - - - -
08.08.2020 22:00:00 - - - - - - -
08.08.2020 21:00:00 - - - - - - -
08.08.2020 20:00:00 28,8 16,0 21 11 NE 1011,2 30
08.08.2020 19:00:00 30,0 15,0 18 10 NNE - 10
08.08.2020 18:00:00 32,0 16,0 26 14 NNE - 10
08.08.2020 17:00:00 33,0 15,5 18 10 NE 1010,4 30
08.08.2020 16:00:00 34,0 15,0 24 13 NNE - 10
08.08.2020 15:00:00 34,0 16,0 22 12 NE - 10
08.08.2020 14:00:00 33,2 17,4 31 17 NNE 1010,9 30
08.08.2020 13:00:00 32,0 17,0 28 15 NE - 10
08.08.2020 12:00:00 32,0 18,0 26 14 NE - 10
08.08.2020 11:00:00 30,2 18,0 18 10 ENE 1011,5 20
08.08.2020 10:00:00 29,0 21,0 13 7 NNE - 10
08.08.2020 09:00:00 26,0 21,0 16 9 NNE - 10
08.08.2020 08:00:00 23,8 20,1 11 6 WNW 1011,5 20
08.08.2020 07:00:00 - - - - - - -
08.08.2020 06:00:00 - - - - - - -
08.08.2020 05:00:00 - - - - - - -
08.08.2020 04:00:00 - - - - - - -
08.08.2020 03:00:00 - - - - - - -
08.08.2020 02:00:00 - - - - - - -
08.08.2020 01:00:00 - - - - - - -
08.08.2020 00:00:00 - - - - - - -
07.08.2020 23:00:00 - - - - - - -
07.08.2020 22:00:00 - - - - - - -
07.08.2020 21:00:00 - - - - - - -
07.08.2020 20:00:00 23,0 20,3 9 5 NW 1012,4 12
07.08.2020 19:00:00 23,0 20,0 11 6 WNW - 10
07.08.2020 18:00:00 23,0 20,0 9 5 WNW - 10
07.08.2020 17:00:00 21,6 19,5 11 6 WNW 1012,3 10
07.08.2020 16:00:00 21,0 20,0 - - - - 10
07.08.2020 15:00:00 22,0 21,0 24 13 NNW - 10
07.08.2020 14:00:00 24,0 22,2 11 6 N 1012,0 10
07.08.2020 13:00:00 30,0 18,0 21 11 NNW - 10
07.08.2020 12:00:00 30,0 19,0 18 10 - - 10
07.08.2020 11:00:00 28,2 18,9 13 7 NNW 1011,8 15
07.08.2020 10:00:00 27,0 21,0 15 8 NNW - 10
07.08.2020 09:00:00 25,0 21,0 15 8 WNW - 10
07.08.2020 08:00:00 22,2 19,9 13 7 WNW 1010,6 15
07.08.2020 07:00:00 - - - - - - -
07.08.2020 06:00:00 - - - - - - -
07.08.2020 05:00:00 - - - - - - -
07.08.2020 04:00:00 - - - - - - -
07.08.2020 03:00:00 - - - - - - -
07.08.2020 02:00:00 - - - - - - -
07.08.2020 01:00:00 - - - - - - -
07.08.2020 00:00:00 - - - - - - -
06.08.2020 23:00:00 - - - - - - -
06.08.2020 22:00:00 - - - - - - -
06.08.2020 21:00:00 - - - - - - -
06.08.2020 20:00:00 22,0 20,3 4 2 N 1011,8 10
06.08.2020 19:00:00 24,0 23,0 16 9 - - 10
06.08.2020 18:00:00 25,0 22,0 18 10 SSE - 10
06.08.2020 17:00:00 27,2 21,2 9 5 N 1009,8 10
06.08.2020 16:00:00 27,0 19,0 15 8 WNW - 10
06.08.2020 15:00:00 26,0 18,0 11 6 W - 10
06.08.2020 14:00:00 28,4 17,9 4 2 N 1010,3 15
06.08.2020 13:00:00 26,0 20,0 18 10 - - 10
06.08.2020 12:00:00 26,0 17,0 18 10 NNW - 10
06.08.2020 11:00:00 27,4 17,0 16 9 WNW 1009,6 18
06.08.2020 10:00:00 25,0 17,0 16 9 - - 10
06.08.2020 09:00:00 22,0 18,0 18 10 NW - 10
06.08.2020 08:00:00 20,4 18,2 13 7 NW 1009,4 18
06.08.2020 07:00:00 - - - - - - -
06.08.2020 06:00:00 - - - - - - -
06.08.2020 05:00:00 - - - - - - -
06.08.2020 04:00:00 - - - - - - -
06.08.2020 03:00:00 - - - - - - -
06.08.2020 02:00:00 - - - - - - -
06.08.2020 01:00:00 - - - - - - -
06.08.2020 00:00:00 - - - - - - -
05.08.2020 23:00:00 - - - - - - -
05.08.2020 22:00:00 - - - - - - -
05.08.2020 21:00:00 - - - - - - -
05.08.2020 20:00:00 23,8 19,5 15 8 NW 1008,8 35
05.08.2020 19:00:00 24,0 19,0 15 8 NW - 10
05.08.2020 18:00:00 24,0 19,0 21 11 NW - 10
05.08.2020 17:00:00 26,0 18,9 21 11 NW 1007,8 35
05.08.2020 16:00:00 28,0 18,0 11 6 W - 10
05.08.2020 15:00:00 27,0 18,0 13 7 - - 10
05.08.2020 14:00:00 28,6 17,2 13 7 S 1007,4 12
05.08.2020 13:00:00 31,0 15,0 22 12 SE - 10
05.08.2020 12:00:00 30,0 14,0 18 10 SE - 10
05.08.2020 11:00:00 26,6 13,7 9 5 WNW 1007,0 30
05.08.2020 10:00:00 24,0 16,0 8 4 WNW - 10
05.08.2020 09:00:00 23,0 16,0 8 4 WNW - 10
05.08.2020 08:00:00 22,0 16,1 9 5 NW 1006,9 20
05.08.2020 07:00:00 - - - - - - -
05.08.2020 06:00:00 - - - - - - -
05.08.2020 05:00:00 - - - - - - -
05.08.2020 04:00:00 - - - - - - -
05.08.2020 03:00:00 - - - - - - -
05.08.2020 02:00:00 - - - - - - -
05.08.2020 01:00:00 - - - - - - -
05.08.2020 00:00:00 - - - - - - -
04.08.2020 23:00:00 - - - - - - -
04.08.2020 22:00:00 - - - - - - -
04.08.2020 21:00:00 - - - - - - -
04.08.2020 20:00:00 28,0 24,2 11 6 SW 1005,0 15
04.08.2020 19:00:00 29,0 26,0 16 9 SSW - 10
04.08.2020 18:00:00 30,0 25,0 11 6 S - 10
04.08.2020 17:00:00 28,8 22,5 5 3 S 1005,8 12
04.08.2020 16:00:00 30,0 22,0 5 3 - - 9
04.08.2020 15:00:00 29,0 27,0 16 9 S - 5
04.08.2020 14:00:00 33,0 26,8 11 6 S 1006,4 5
04.08.2020 13:00:00 32,0 27,0 11 6 S - 5
04.08.2020 12:00:00 30,0 27,0 13 7 S - 4,0
04.08.2020 11:00:00 29,2 27,8 15 8 S 1006,6 4,0
04.08.2020 10:00:00 29,0 25,0 8 4 SSE - 4,0
04.08.2020 09:00:00 28,0 24,0 4 2 - - 10
04.08.2020 08:00:00 26,0 24,0 9 5 ENE 1006,2 2,0
04.08.2020 07:00:00 - - - - - - -
04.08.2020 06:00:00 - - - - - - -
04.08.2020 05:00:00 - - - - - - -
04.08.2020 04:00:00 - - - - - - -
04.08.2020 03:00:00 - - - - - - -
04.08.2020 02:00:00 - - - - - - -
04.08.2020 01:00:00 - - - - - - -
04.08.2020 00:00:00 - - - - - - -
03.08.2020 23:00:00 - - - - - - -
03.08.2020 22:00:00 - - - - - - -
03.08.2020 21:00:00 - - - - - - -

tt = temperature
td = dewpoint
ff = wind speed
dd = wind direction
ppp = reduced air pressure
vv = visibility

Next stations